| time (UTC) | temp F | wind direction | speed MPH | gust MPH | rain 1hr in | rain 24hr in | rain mn in | humidity % | barometer mb |
| 20260504081540 | 49 | 30 | 9.0 | 15.0 | 0.00 | 0.00 | 0.00 | 50 | 1015.4 |
| 20260504044537 | 55 | 33 | 4.0 | 7.0 | 0.00 | 0.00 | 0.00 | 42 | 1009.4 |
| 20260504043039 | 55 | 0 | 0.0 | 0.0 | 0.00 | 0.00 | 0.00 | 40 | 1009.2 |
| 20260504041541 | 57 | 47 | 1.0 | 4.0 | 0.00 | 0.00 | 0.00 | 38 | 1009.0 |
| 20260504040042 | 59 | 46 | 3.0 | 8.0 | 0.00 | 0.00 | 0.00 | 35 | 1008.8 |
| 20260504034553 | 59 | 0 | 0.0 | 1.0 | 0.00 | 0.00 | 0.00 | 33 | 1008.5 |
| 20260504033051 | 60 | 0 | 1.0 | 3.0 | 0.00 | 0.00 | 0.00 | 30 | 1007.7 |
| 20260504031556 | 61 | 99 | 0.0 | 2.0 | 0.00 | 0.00 | 0.00 | 30 | 1007.6 |
| 20260504030043 | 62 | 0 | 0.0 | 1.0 | 0.00 | 0.00 | 0.00 | 29 | 1007.3 |
| 20260504024549 | 63 | 0 | 0.0 | 1.0 | 0.00 | 0.00 | 0.00 | 27 | 1007.2 |
| 20260504023044 | 64 | 0 | 0.0 | 0.0 | 0.00 | 0.00 | 0.00 | 27 | 1007.1 |
| 20260504021543 | 66 | 0 | 0.0 | 0.0 | 0.00 | 0.00 | 0.00 | 25 | 1007.1 |
| 20260504020040 | 69 | 41 | 2.0 | 8.0 | 0.00 | 0.00 | 0.00 | 23 | 1007.0 |
| 20260504014539 | 71 | 354 | 4.0 | 11.0 | 0.00 | 0.00 | 0.00 | 22 | 1006.9 |
| 20260504013042 | 73 | 41 | 7.0 | 16.0 | 0.00 | 0.00 | 0.00 | 20 | 1006.9 |
| 20260504011542 | 75 | 345 | 9.0 | 15.0 | 0.00 | 0.00 | 0.00 | 19 | 1006.9 |
| 20260504010043 | 75 | 303 | 7.0 | 13.0 | 0.00 | 0.00 | 0.00 | 18 | 1007.1 |
| 20260504004541 | 75 | 333 | 9.0 | 15.0 | 0.00 | 0.00 | 0.00 | 17 | 1007.2 |
| 20260504003043 | 75 | 300 | 12.0 | 15.0 | 0.00 | 0.00 | 0.00 | 16 | 1007.3 |
| 20260504001542 | 75 | 0 | 0.0 | 2.0 | 0.00 | 0.00 | 0.00 | 17 | 1007.5 |
| 20260504000104 | 75 | 0 | 0.0 | 0.0 | 0.00 | 0.00 | 0.00 | 17 | 1007.5 |
| 20260503234543 | 75 | 0 | 0.0 | 3.0 | 0.00 | 0.00 | 0.00 | 17 | 1007.7 |
| 20260503233042 | 75 | 0 | 0.0 | 2.0 | 0.00 | 0.00 | 0.00 | 17 | 1007.9 |
| 20260503231541 | 74 | 0 | 0.0 | 4.0 | 0.00 | 0.00 | 0.00 | 17 | 1007.9 |
| 20260503230038 | 75 | 333 | 0.0 | 5.0 | 0.00 | 0.00 | 0.00 | 16 | 1007.9 |
| 20260503224543 | 74 | 0 | 0.0 | 16.0 | 0.00 | 0.00 | 0.00 | 16 | 1008.2 |
| 20260503223044 | 74 | 265 | 14.0 | 18.0 | 0.00 | 0.00 | 0.00 | 16 | 1008.5 |
| 20260503221542 | 74 | 321 | 13.0 | 20.0 | 0.00 | 0.00 | 0.00 | 16 | 1008.6 |
| 20260503220043 | 73 | 283 | 11.0 | 19.0 | 0.00 | 0.00 | 0.00 | 16 | 1008.8 |
| 20260503214541 | 74 | 325 | 0.0 | 12.0 | 0.00 | 0.00 | 0.00 | 16 | 1008.9 |
| 20260503213040 | 73 | 308 | 7.0 | 16.0 | 0.00 | 0.00 | 0.00 | 17 | 1009.1 |
| 20260503211536 | 73 | 0 | 0.0 | 14.0 | 0.00 | 0.00 | 0.00 | 18 | 1009.1 |
| 20260503210045 | 72 | 333 | 13.0 | 21.0 | 0.00 | 0.00 | 0.00 | 17 | 1009.4 |
| 20260503204540 | 72 | 290 | 9.0 | 20.0 | 0.00 | 0.00 | 0.00 | 19 | 1010.0 |
| 20260503203044 | 72 | 0 | 0.0 | 15.0 | 0.00 | 0.00 | 0.00 | 19 | 1010.1 |
| 20260503201542 | 72 | 309 | 13.0 | 17.0 | 0.00 | 0.00 | 0.00 | 20 | 1010.2 |
| 20260503200042 | 71 | 296 | 14.0 | 26.0 | 0.00 | 0.00 | 0.00 | 20 | 1010.6 |
| 20260503194541 | 71 | 307 | 8.0 | 15.0 | 0.00 | 0.00 | 0.00 | 22 | 1010.9 |
| 20260503193038 | 70 | 314 | 10.0 | 17.0 | 0.00 | 0.00 | 0.00 | 21 | 1011.0 |
| 20260503191542 | 70 | 313 | 13.0 | 23.0 | 0.00 | 0.00 | 0.00 | 23 | 1011.3 |
| 20260503190039 | 69 | 295 | 9.0 | 15.0 | 0.00 | 0.00 | 0.00 | 24 | 1011.5 |
| 20260503184600 | 69 | 294 | 15.0 | 22.0 | 0.00 | 0.00 | 0.00 | 24 | 1011.6 |
| 20260503183044 | 70 | 302 | 13.0 | 16.0 | 0.00 | 0.00 | 0.00 | 24 | 1011.6 |
| 20260503181537 | 68 | 273 | 9.0 | 21.0 | 0.00 | 0.00 | 0.00 | 25 | 1011.9 |
| 20260503180038 | 68 | 280 | 5.0 | 15.0 | 0.00 | 0.00 | 0.00 | 26 | 1012.0 |
| 20260503174542 | 67 | 324 | 11.0 | 16.0 | 0.00 | 0.00 | 0.00 | 26 | 1012.2 |
| 20260503173040 | 67 | 308 | 11.0 | 16.0 | 0.00 | 0.00 | 0.00 | 26 | 1012.3 |
| 20260503171603 | 66 | 296 | 11.0 | 15.0 | 0.00 | 0.00 | 0.00 | 26 | 1012.6 |